Regional Weather Roundup
Issued by NWS

Home | Current Version | Previous Version | Graphics & Text | Print | Product List | Glossary On
Versions: 1 2 3 4 5 6 7 8 9 10 11 12 13 14 15 16 17 18 19 20 21 22 23 24 25 26 27 28 29 30 31 32 33 34 35 36 37 38 39 40 41 42 43 44 45 46 47 48 49 50
110
ASUS43 KIND 230609
RWRIN

WEATHER ROUNDUP FOR INDIANA
NATIONAL WEATHER SERVICE INDIANAPOLIS IN
200 AM EDT SAT JUL 23 2016

NOTE: "FAIR" INDICATES FEW OR NO CLOUDS BELOW 12,000 FEET WITH NO
SIGNIFICANT WEATHER AND/OR OBSTRUCTIONS TO VISIBILITY.

* - STATION DOES NOT REPORT WEATHER SUCH AS PRECIPITATION OR FOG.

+ - STATION NOT QUALITY CONTROLLED BY THE NATIONAL WEATHER SERVICE.
    USE DATA WITH CAUTION...ESPECIALLY DEWPOINT AND RELATIVE
    HUMIDITY OBSERVATIONS.

INZ001>003-010>013-019-020-230700-
NORTHWEST INDIANA

CITY           SKY/WX    TMP DP  RH WIND       PRES   REMARKS
GARY /AIRPORT/ CLOUDY    81  81 100 CALM      30.00F
KNOX *+        CLEAR     72  70  94 W3        30.01F
LA PORTE +     CLEAR    N/A N/A N/A SW5       30.01F
MICHIGAN CITY+ PTCLDY    73  73 100 CALM      30.01S
MONTICELLO +   CLEAR     73  69  87 CALM      30.00F
6HR MIN TEMP:  73; 6HR MAX TEMP:  83;

RENSSELAER +   MOCLDY    72  72 100 CALM      30.01F
VALPARAISO     PTCLDY    76  73  91 SW5       30.01F
6HR MIN TEMP:  76; 6HR MAX TEMP:  84;


$$

LMZ046-743>745-230700-
SOUTHERN LAKE MICHIGAN

STATION/POSITION TIME  TEMP    WIND        PRES    WAVE
                       AIR SEA DIR/SP/G            HT
                 (UTC) (F)     (DEG/KT/KT) (MB)    (FT)
BURNS HARBOR     0500   80     210/  9/ 12 1016.3R
MICHIGAN CITY    0500   78     170/  9/ 11   N/A
5NW MICH CITY    0600   78 75  210/  6/  8   N/A     0

$$

INZ004-005-014>016-021>024-230700-
NORTH CENTRAL INDIANA

CITY           SKY/WX    TMP DP  RH WIND       PRES   REMARKS
GOSHEN         CLEAR     73  68  84 CALM      30.01F
6HR MIN TEMP:  72; 6HR MAX TEMP:  86;

LOGANSPORT +   CLEAR     72  70  94 CALM      30.02F
PERU/GRISSOM   MOCLDY    73  72  99 SW3       30.00F
6HR MIN TEMP:  73; 6HR MAX TEMP:  84;

ROCHESTER +    CLEAR     77  75  94 W5        30.02F
SOUTH BEND     CLEAR     73  72  96 CALM      30.01S
6HR MIN TEMP:  73; 6HR MAX TEMP:  84;

WARSAW +       CLEAR     73  72  94 W3        30.02F

$$

INZ006>009-017-018-025>027-230700-
NORTHEAST INDIANA

CITY           SKY/WX    TMP DP  RH WIND       PRES   REMARKS
ANGOLA *+      CLEAR     70  63  78 CALM      30.01F
AUBURN +       CLEAR     72  68  88 CALM      30.02S
FORT WAYNE     PTCLDY    73  70  90 W5        30.01S
6HR MIN TEMP:  73; 6HR MAX TEMP:  85;

HUNTINGTON +   CLEAR    N/A N/A N/A CALM      30.01F

$$

INZ028-029-035-036-043>045-051>053-230700-
WEST CENTRAL INDIANA

CITY           SKY/WX    TMP DP  RH WIND       PRES   REMARKS
CRAWFORDSVL +  CLEAR     68  68 100 CALM      30.03S FOG
6HR MIN TEMP:  68; 6HR MAX TEMP:  80;

GREENCASTLE +  CLEAR     70  70 100 S5        30.03F
LAFAYETTE      FOG       73  73 100 CALM      30.01S VSB 1
6HR MIN TEMP:  72; 6HR MAX TEMP:  84;

TERRE HAUTE    CLEAR     74  71  91 CALM      30.01F
6HR MIN TEMP:  73; 6HR MAX TEMP:  87;


$$

INZ030>032-037>040-046>048-054>057-064-065-230700-
CENTRAL INDIANA

CITY           SKY/WX    TMP DP  RH WIND       PRES   REMARKS
FRANKFORT +    MOCLDY   N/A N/A N/A CALM      30.04F
INDIANAPOLIS   PTCLDY    76  71  85 W5        30.02F
6HR MIN TEMP:  76; 6HR MAX TEMP:  86;

-EAGLE CREEK   CLEAR     78  72  81 N3        30.01F
6HR MIN TEMP:  78; 6HR MAX TEMP:  87;

KOKOMO *+      CLEAR     73  68  83 S5        30.02S
6HR MIN TEMP:  72; 6HR MAX TEMP:  84;

MARION +       CLEAR     71  70  98 CALM      30.03S
MT COMFORT *+  CLEAR     70  70 100 CALM      30.03S
SHELBYVILLE    FOG       75  73  93 CALM      30.02S VSB 1/4
6HR MIN TEMP:  74; 6HR MAX TEMP:  86;

ZIONSVILLE +   CLEAR     70  69  98 CALM      30.04S
6HR MIN TEMP:  70; 6HR MAX TEMP:  82;


$$

INZ033-034-041-042-049-050-058-059-230700-
EAST CENTRAL INDIANA

CITY           SKY/WX    TMP DP  RH WIND       PRES   REMARKS
MUNCIE         CLEAR     74  70  87 CALM      30.03S
6HR MIN TEMP:  73; 6HR MAX TEMP:  86;


$$

INZ060-061-067>069-081>083-085>088-230700-
SOUTHWEST INDIANA

CITY           SKY/WX    TMP DP  RH WIND       PRES   REMARKS
EVANSVILLE     CLEAR     76  74  93 N3        30.01S
6HR MIN TEMP:  76; 6HR MAX TEMP:  84;

HUNTINGBURG *+ CLEAR     75  72  88 CALM      30.01F
6HR MIN TEMP:  75; 6HR MAX TEMP:  84;

WASHINGTON +   FOG       73  73 100 MISG      30.01S VSB 1/4
6HR MIN TEMP:  73; 6HR MAX TEMP:  83;


$$

INZ062-063-066-070>080-084-089>092-230700-
SOUTH CENTRAL AND SOUTHEAST INDIANA

CITY           SKY/WX    TMP DP  RH WIND       PRES   REMARKS
BLOOMINGTON    FOG       73  71  93 CALM      30.03S VSB 1/4
6HR MIN TEMP:  73; 6HR MAX TEMP:  84;

MADISON *+     CLEAR     73  72  94 CALM      30.05S
NORTH VERNON + CLEAR    N/A N/A N/A CALM      30.04S
SEYMOUR +      CLEAR     73  73 100 CALM      30.02S FOG

$$





USA.gov is the U.S. government's official web portal to all federal, state and local government web resources and services.